Submittal Forms
Current Contests
Recent Contests

Club Activity Tracker - South East Contest Club (from club selection on form)

Recent postings for the selected club or group are listed below. Other than the call used, all calls listed are only those associated with the club or group. Click on a call to see the details of the posting.
Status Key: new=new posting, update=update prior posting, move=change club/group, delete=delete prior posting.

Sort by   for past

TimestampCallContestClassPowerScoreStatus
2020-05-28 18:02:18WA8OJRCWopsTSingle OpLP729new5613
2020-05-28 04:12:00KU8ECWopsTSingle OpHP13,310new5615
2020-05-28 04:06:19NN4KCWopsTSingle OpHP1,764new5615
2020-05-28 04:06:08K4BAICWopsTSingle OpLP7,007new5615
2020-05-28 03:14:00AD8JCWopsTSingle OpLP729new5615
2020-05-28 01:03:31W2ECKCWopsTSingle OpLP1,024new5614
2020-05-27 21:17:23AD8JCWopsTSingle OpHP10,807new5614
2020-05-27 20:13:12K4BAICWopsTSingle OpLP81new5614
2020-05-27 20:07:45W8FNCWopsTSingle OpHP7,304new5614
2020-05-27 20:04:05NN4KCWopsTSingle OpHP1,520new5614
 
2020-05-27 20:02:22K4HRCWopsTSingle OpHP3,596new5614
2020-05-27 20:01:46WU4BCWopsTSingle OpLP1,024new5614
2020-05-27 17:13:16K4BAICWopsTSingle OpLP11,881new5613
2020-05-27 15:09:39K4HRCWopsTSingle OpHP4,958new5613
2020-05-27 14:51:32W8FNCWopsTSingle OpHP8,836new5613
2020-05-27 14:43:41K2SXCWopsTSingle OpHP289new5613
2020-05-27 14:04:36NN4KCWopsTSingle OpHP3,600new5613
2020-05-27 14:04:35NG2JCWopsTSingle OpLP1,764new5613
2020-05-27 14:02:33AD8JCWopsTSingle OpHP12,154new5613
2020-05-27 14:00:32NS4TCWopsTSingle OpLP9,894new5613
 
2020-05-24 02:19:28K4BAIBalticSO CWHP58new5602
2020-05-22 03:08:38K4BAINCCC SprintSingle OpLP1,786new5598
2020-05-21 18:10:01AA4CFKing of Spain CWSOABHP5,852new5583
2020-05-21 04:07:13K4BAICWopsTSingle OpLP8,554new5594
2020-05-21 04:06:32NN4KCWopsTSingle OpHP3,481new5594
2020-05-21 04:03:10KU8ECWopsTSingle OpHP14,012new5594
2020-05-21 04:02:39NG2JCWopsTSingle OpLP961new5594
2020-05-21 03:32:28K2SXCWopsTSingle OpHP1,156new5594
2020-05-21 03:17:58AD8JCWopsTSingle OpLP702new5594
2020-05-20 20:08:29K4BAICWopsTSingle OpLP8,550new5593
 
2020-05-20 20:07:13NG2JCWopsTSingle OpLP484new5593
2020-05-20 20:06:12W8FNCWopsTSingle OpHP6,320new5593
2020-05-20 20:04:07NN4KCWopsTSingle OpLP1,849new5593
2020-05-20 20:02:30K4HRCWopsTSingle OpHP5,100new5593
2020-05-20 20:02:28AD8JCWopsTSingle OpHP14,161new5593
2020-05-20 19:34:40K2SXCWopsTSingle OpHP2,652new5593
2020-05-20 15:05:31WA8OJRCWopsTSingle OpLP3,300new5592
2020-05-20 14:49:37K4HRCWopsTSingle OpHP4,080new5592
2020-05-20 14:13:40W8FNCWopsTSingle OpHP6,715new5592
2020-05-20 14:10:22K4BAICWopsTSingle OpLP289new5592
 
2020-05-20 14:04:56NN4KCWopsTSingle OpLP1,225new5592
2020-05-20 14:02:18AD8JCWopsTSingle OpHP7,134new5592
2020-05-20 14:00:43NS4TCWopsTSingle OpLP12,882new5592
2020-05-20 13:22:33K2SXCWopsTSingle OpHP900new5592
2020-05-19 03:37:03W4AQL(KN8U)WWSACSOAB-YouthHP9,960new5587
2020-05-18 17:12:42W4ANTHamventionSingle OpLP10new5569
2020-05-17 18:34:27WU4BHamventionSingle OpQRP19new5569
2020-05-17 16:50:05KU8EHamventionSingle OpHP168new5569
2020-05-17 13:33:05K4BAIKing of Spain CWSOABLP7,920new5583
2020-05-17 13:32:15W8FNHamventionSingle OpHP188new5569
 
2020-05-17 13:16:40K4BAIHamventionSingle OpLP541new5569
2020-05-17 13:05:03K4BAIUNDXSO CWLP360update5582
2020-05-17 04:34:47NG2JHamventionSingle OpLP140update5569
2020-05-17 01:03:24W4QOHamventionSingle OpQRP169new5569
2020-05-17 00:01:03AA5JFHamventionSingle OpHP213new5569
2020-05-15 21:12:16KC8YRKArQPSOSSBLP376new5565
2020-05-15 12:53:42K4BAIHopeSingle OpHP196new5577
2020-05-15 03:12:16K4BAINCCC SprintSingle OpLP2,000new5580
2020-05-14 04:07:06K4BAICWopsTSingle OpHP13,456new5576
2020-05-14 04:00:55NS4TCWopsTSingle OpLP8,415new5576
 
2020-05-14 03:31:13NN4KCWopsTSingle OpLP121new5576
2020-05-14 03:19:44AD8JCWopsTSingle OpLP729new5576
2020-05-14 03:19:39K2SXCWopsTSingle OpHP1,444new5576
2020-05-13 20:15:36K4BAICWopsTSingle OpHP9,682new5575
2020-05-13 20:08:22K4HRCWopsTSingle OpHP3,960new5574
2020-05-13 20:04:02WU4BCWopsTSingle OpLP1,089new5575
2020-05-13 20:03:45NN4KCWopsTSingle OpLP1,764new5575
2020-05-13 20:03:18K4HRCWopsTSingle OpHP3,894new5575
2020-05-13 20:02:22AD8JCWopsTSingle OpLP361new5575
2020-05-13 20:00:51NS4TCWopsTSingle OpLP7,055new5575
 
2020-05-13 19:34:05K2SXCWopsTSingle OpHP3,481new5575
2020-05-13 18:58:52N4GGCQ-MSOABCWHP1,290new5564
2020-05-13 18:34:50WA8OJRCWopsTSingle OpLP1,521new5574
2020-05-13 15:33:14K4BAICWopsTSingle OpHP13,566new5574
2020-05-13 14:51:48NN4KCWopsTSingle OpLP2,025new5574
2020-05-13 14:04:28AE4YCWopsTSingle OpLP3,136new5574
2020-05-13 14:02:46AD8JCWopsTSingle OpHP11,752new5574
2020-05-13 13:58:45NS4TCWopsTSingle OpLP5,550new5574
2020-05-13 13:39:08K2SXCWopsTSingle OpHP3,190new5574
2020-05-12 02:03:52KN8UWWSACSOAB-YouthHP207new5568
 
2020-05-11 13:13:42NE4SArQPSOMixedLP11,968new5565
2020-05-11 00:38:29KI4MZCArQPSOCWQRP18new5565
2020-05-10 20:39:33W4UKVolta RTTYSOABHP18,216,000new5563
2020-05-10 17:08:08K2SXCQ-MSOABCWHP38,881new5564
2020-05-10 15:18:36KU8ECQ-MSOABCWHP78,269update5564
2020-05-10 14:12:39K4BAIArQPSOMixedHP3,845new5565
2020-05-10 14:02:41AA5JFVolta RTTYSOABHP3,417,000new5563
2020-05-10 13:41:27K4BAICQ-MSOABCWHP91,160new5564
2020-05-10 13:14:49KU8EArQPSOMixedHP360new5565
2020-05-10 02:02:50KR4AEArQPSOMixedQRP2,178new5565
 
2020-05-10 00:30:19NS4T50SprngSprntSingle OpLP242new5567
2020-05-08 21:26:26K4BAIHopeSingle OpHP30new5553
2020-05-08 03:10:47K4BAINCCC SprintSingle OpLP1,710new5562
2020-05-07 20:58:30KC8YRKNewEngQPSingle OpLP72new5547
2020-05-07 04:07:30K4BAICWopsTSingle OpHP12,614new5559
2020-05-07 04:05:38NN4KCWopsTSingle OpLP1,444new5559
2020-05-07 04:02:35KU8ECWopsTSingle OpHP13,786new5559
2020-05-07 03:24:10K2SXCWopsTSingle OpHP1,849new5559
2020-05-07 03:14:10AD8JCWopsTSingle OpLP400new5559
2020-05-06 22:23:45KU8ECWopsTSingle OpHP1,764new5558
 
2020-05-06 20:17:37K4BAICWopsTSingle OpHP12,650new5558
2020-05-06 20:14:58K2SXCWopsTSingle OpHP729new5558
2020-05-06 20:10:48KR4AECWopsTSingle OpLP1,406new5558
2020-05-06 20:06:59NN4KCWopsTSingle OpLP1,600new5558
2020-05-06 20:02:41K4HRCWopsTSingle OpHP4,092new5558
2020-05-06 20:02:21AE4YCWopsTSingle OpLP2,162new5558
2020-05-06 20:02:15AD8JCWopsTSingle OpHP11,881new5558
2020-05-06 15:02:42K4HRCWopsTSingle OpHP3,472new5557
2020-05-06 14:27:52K4BAIHopeSingle OpHP858new5551
2020-05-06 14:06:47K4BAICWopsTSingle OpHP20,449new5557
 
2020-05-06 14:04:28NN4KCWopsTSingle OpHP841new5557
2020-05-06 14:02:34AD8JCWopsTSingle OpHP19,019new5557
2020-05-06 14:01:51AE4YCWopsTSingle OpLP2,809new5557
2020-05-06 13:38:44K2SXCWopsTSingle OpHP4,624new5557
2020-05-05 13:12:38N4TOLNewEngQPSingle OpLP4,160new5547
2020-05-04 17:12:53AA4CFARISO CWHP10,080new5543
2020-05-04 15:17:06WA8OJRNewEngQPSingle OpLP15,080new5547
2020-05-04 15:15:24KU8ENewEngQPSingle OpHP13,545update5547
2020-05-04 15:12:45WA8OJR7QPSOMixedLP10,780new5544
2020-05-04 04:12:08KI4MZCInQPSingle OpQRP8new5545
 
2020-05-04 04:10:55KI4MZCNewEngQPSingle OpQRP1,702new5547
2020-05-04 04:09:21KI4MZCDeQPSingle OpQRP60new5546
2020-05-04 04:07:43KI4MZC7QPSO(A)CWQRP90new5544
2020-05-04 02:26:32K2SXInQPSingle OpHP572new5545
2020-05-04 02:25:51K2SXNewEngQPSingle OpHP7,276new5547
2020-05-04 02:25:15K2SXDeQPSingle OpHP20new5546
2020-05-04 02:24:32K2SX7QPSO(A)CWHP28,014new5544
2020-05-04 02:09:48KU8E7QPSOMixedHP36,603new5544
2020-05-04 01:57:29K4BAI7QPSOMixedHP79,488new5544
2020-05-04 01:52:26KU8EInQPSingle OpHP924new5545
 
2020-05-04 01:52:11N4GGNewEngQPSingle OpHP15,996new5547
2020-05-04 01:44:38K4BAINewEngQPSingle OpHP35,340new5547
2020-05-04 01:39:02K4BAIInQPSingle OpHP2,464new5545
2020-05-04 01:32:14K4BAIDeQPSingle OpHP2,310new5546
2020-05-04 00:25:48K4BAIARISO MixedHP79,488new5543
2020-05-04 00:24:19AA5JFNewEngQPSingle OpLP14,476new5547
2020-05-04 00:23:59KR4AENewEngQPSingle OpQRP14,564new5547
2020-05-04 00:21:50W4QOInQPSingle OpQRP32new5545
2020-05-04 00:18:37W4QONewEngQPSingle OpQRP10,496new5547
2020-05-04 00:16:45W4QODeQPSingle OpQRP960new5546
 
2020-05-04 00:15:40W3PJNewEngQPSingle OpHP9,786new5547
2020-05-04 00:15:01AA5JF7QPSO(A)MixedLP22,007new5544
2020-05-04 00:13:51W3PJInQPSingle OpHP345new5545
2020-05-04 00:11:50W3PJDeQPSingle OpHP240new5546
2020-05-04 00:10:15W4QO7QPSOMixedQRP18,462new5544
2020-05-04 00:10:07W3PJ7QPSO(A)MixedHP184new5544
2020-05-04 00:09:57AA5JFInQPSingle OpHP91new5545
2020-05-04 00:08:17AA5JFDeQPSingle OpLP420new5546
2020-05-03 20:48:51KU8EARISO MixedHP22,491new5543
2020-05-03 14:37:47K4LD7QPSOSSBHP7,004new5544
 
2020-05-01 22:21:47W4UKSPDX RTTYSOABHP117,364new5520
2020-05-01 17:46:11K4BAIHopeSingle OpHP1,260new5541
2020-05-01 03:10:06K4BAINCCC SprintSingle OpLP1,240new5540
2020-04-30 06:29:55NN4KCWopsTSingle OpHP1,849new5537
2020-04-30 04:07:41K4BAICWopsTSingle OpHP16,348new5537
2020-04-30 03:23:29K2SXCWopsTSingle OpHP1,225new5537
2020-04-30 03:14:12AD8JCWopsTSingle OpLP289new5537
2020-04-29 20:27:30NN4KCWopsTSingle OpHP121new5536
2020-04-29 20:14:33K4HRCWopsTSingle OpHP3,245new5535
2020-04-29 20:06:59K4BAICWopsTSingle OpHP12,320new5536
 
2020-04-29 20:05:34K4HRCWopsTSingle OpHP4,757new5536
2020-04-29 20:02:33AD8JCWopsTSingle OpQRP3,600new5536
2020-04-29 19:36:17NS4TCWopsTSingle OpLP3,364new5536
2020-04-29 19:33:32K2SXCWopsTSingle OpHP1,849new5536
2020-04-29 14:35:31WA8OJRCWopsTSingle OpLP900new5535
2020-04-29 14:11:11K4BAICWopsTSingle OpHP961new5535
2020-04-29 14:04:38NN4KCWopsTSingle OpHP2,025new5535
2020-04-29 14:04:23K3UTCWopsTSingle OpLP676new5535
2020-04-29 14:02:52AD8JCWopsTSingle OpHP16,637new5535
2020-04-29 14:01:43AE4YCWopsTSingle OpLP2,401new5535
 
2020-04-29 14:00:49NS4TCWopsTSingle OpLP14,641new5535
2020-04-29 13:19:19K2SXCWopsTSingle OpHP784new